Preview of NWS' New Version of Forecast
This preview is not operational and should not be used for support decisions.

Regional Weather Roundup (RWR)

Issued by National Weather Service (NWS)

                            
000
ASUS43 KDMX 251006
RWRIA 

WEATHER ROUNDUP FOR IOWA
NATIONAL WEATHER SERVICE DES MOINES IA
500 AM CDT TUE JUN 25 2019

NOTE: "FAIR" INDICATES FEW OR NO CLOUDS BELOW 12,000 FEET WITH NO
SIGNIFICANT WEATHER AND/OR OBSTRUCTIONS TO VISIBILITY.

* - THESE STATIONS ARE NOT NWS STATIONS...THUS NOT UNDER NWS
QUALITY CONTROL.  THEY ALSO DO NOT REPORT WEATHER SUCH 
AS PRECIPITATION OR FOG.  

IAZ001>003-012>014-020>022-031>034-043>046-251100-
   NORTHWEST IOWA
  
CITY           SKY/WX    TMP DP  RH WIND       PRES   REMARKS
CARROLL *      CLOUDY    68  57  68 W13G28    29.82R                  
CHEROKEE *     PTCLDY    61  60  97 S7        29.82S                  
DENISON *      PTCLDY    66  61  82 NW9       29.84F                  
LE MARS *      CLEAR     63  63 100 S10       29.79F                  
SHELDON *        N/A     63  63 100 SW8       29.76F                  
SIOUX CITY     LGT RAIN  62  59  90 SW15G31   29.85R                  
SPENCER        PTCLDY    65  57  75 SW9       29.78S                  
STORM LAKE *   LGT RAIN  61  61 100 W12G22    29.81R                  
$$
 
IAZ055>058-069>071-079>083-090>094-251100-
   SOUTHWEST IOWA
  
CITY           SKY/WX    TMP DP  RH WIND       PRES   REMARKS
ATLANTIC *     PTCLDY    64  63  94 SW7       29.81R                  
AUDUBON *      PTCLDY    64  59  82 CALM      29.82R                  
CLARINDA *     CLEAR     63  61  94 S6        29.84S                  
COUNCIL BLFS * MOCLDY    66  63  88 CALM      29.83R                  
CRESTON *      CLEAR     64  59  82 S12       29.84S                  
HARLAN  *      LGT RAIN  64  61  88 W9G17     29.86R                  
LAMONI         CLEAR     64  58  80 SW12      29.86R                  
RED OAK *      PTCLDY    64  61  88 S6        29.82R                  
SHENANDOAH *   PTCLDY    66  61  82 S8        29.81R                  
$$
 
IAZ047>049-059>061-072>074-084-251100-
   CENTRAL IOWA
  
CITY           SKY/WX    TMP DP  RH WIND       PRES   REMARKS
AMES           CLEAR     61  58  90 SW7       29.80R                  
ANKENY *       CLEAR     66  57  72 SW7       29.82S                  
BOONE *        PTCLDY    64  63  94 SW8       29.80R                  
CHARITON *     CLEAR     64  61  88 SW7       29.85R                  
DES MOINES     PTCLDY    65  57  75 S9        29.81R                  
GRINNELL*      CLEAR     63  58  82 SW9       29.84R                  
KNOXVILLE *    CLEAR     64  59  82 SW9       29.83R                  
MARSHALLTOWN   PTCLDY    61  58  90 CALM      29.80S                  
NEWTON *       CLEAR     63  59  88 SW7       29.82S                  
PELLA *        CLEAR     64  57  77 SW7       29.85R                  
$$
 
IAZ004>006-015-016-023>025-035-036-251100-
   NORTH CENTRAL IOWA
  
CITY           SKY/WX    TMP DP  RH WIND       PRES   REMARKS
ALGONA *       MOCLDY    63  61  94 SW6       29.76F                  
CLARION *      PTCLDY    63  59  88 SW9       29.80R                  
ESTHERVILLE    PTCLDY    63  56  78 SW15      29.75S                  
FORT DODGE *   CLEAR     63  58  83 SW6       29.81R                  
MASON CITY     PTCLDY    61  55  81 S8        29.79S                  
FOREST CITY *  FAIR      61  59  94 S8        29.77F                  
IOWA FALLS *   FAIR      62  59  88 SW6       29.80S                  
$$

IAZ007>011-017>019-026>030-037>042-050>054-066-251100-
   NORTHEAST IOWA
  
CITY           SKY/WX    TMP DP  RH WIND       PRES   REMARKS
CEDAR RAPIDS   FAIR      61  58  90 NW12      29.83R                  
CHARLES CITY * MOCLDY    63  57  82 SW9       29.79S                  
CLINTON *      FAIR      62  60  93 SW8       29.83R                  
DECORAH *      FAIR      63  57  82 SW3       29.76S                  
DUBUQUE        FAIR      58  56  93 SW7       29.80R                  
MONTICELLO *   MOCLDY    61  61 100 SW6       29.81S                  
OELWEIN *      CLOUDY    61  61 100 SW6       29.81R                  
WATERLOO       FAIR      61  57  87 CALM      29.79R                  
$$
 
IAZ064-065-067-068-078-251100-
   EAST CENTRAL IOWA
  
CITY           SKY/WX    TMP DP  RH WIND       PRES   REMARKS
DAVENPORT      FAIR      62  57  83 SW5       29.84R                  
IOWA CITY      FAIR      64  58  80 SW3       29.84R                  
MT. PLEASANT * CLEAR     61  59  94 CALM      29.86R                  
MUSCATINE *    FAIR      66  59  77 SW14      29.83R                  
QUAD CITIES    FAIR      62  58  86 SW5       29.83R                  
$$
 
IAZ062-063-075>077-085>089-095>099-251100-
   SOUTHEAST IOWA
  
CITY           SKY/WX    TMP DP  RH WIND       PRES   REMARKS
BURLINGTON     CLEAR     63  57  81 SW7       29.86R                  
FAIRFIELD *    CLEAR     64  59  82 SW9       29.85S                  
FORT MADISON * CLEAR     66  59  77 SW8       29.87R                  
KEOKUK *       CLEAR     64  59  82 SW8       29.87R                  
OSKALOOSA *    FAIR      63  57  81 SW12      29.85R                  
CENTERVILLE *  FAIR      63  59  88 SW7       29.88S                  
OTTUMWA        CLEAR     65  57  75 SW10      29.85R                  
WASHINGTON *   CLEAR     64  64 100 SW9       29.83R                  
$$

ABBREVIATIONS USED IN REMARKS
   TC - TEMPERATURES IN CELSIUS
  WCI - WIND CHILL INDEX
   HX - HEAT INDEX
  VSB - VISIBILITY  
$$